Total_Precipitation_Accumulation
0.00 0.01 0.02 0.03 0.05 0.05 0.04 0.04 0.14 0.10 0.11 0.09 0.04 0.02 0.02 0.01 0.01 0.01 0.01 0.01 0.01 0.01 0.01 0.02 0.02 0.04 0.10 0.15 0.15 0.23 0.43 0.54 0.43 0.27 0.19 0.13 0.11 0.13 0.18 0.26 0.31 0.44 0.60 0.70
0.00 0.02 0.01 0.03 0.07 0.06 0.03 0.01 0.02 0.03 0.05 0.02 0.02 0.02 0.02 0.02 0.02 0.02 0.02 0.02 0.02 0.02 0.01 0.02 0.03 0.04 0.04 0.07 0.12 0.21 0.37 0.49 0.43 0.33 0.21 0.13 0.11 0.13 0.19 0.26 0.31 0.39 0.48 0.48
0.01 0.02 0.02 0.08 0.07 0.04 0.02 0.02 0.03 0.04 0.05 0.03 0.04 0.04 0.04 0.05 0.04 0.03 0.02 0.02 0.01 0.01 0.01 0.01 0.03 0.05 0.06 0.06 0.10 0.22 0.37 0.46 0.47 0.42 0.31 0.24 0.16 0.17 0.22 0.27 0.32 0.37 0.37 0.38
0.01 0.01 0.07 0.08 0.02 0.01 0.02 0.03 0.03 0.04 0.05 0.05 0.06 0.05 0.05 0.06 0.04 0.02 0.01 0.01 0.01 0.01 0.01 0.01 0.02 0.03 0.05 0.06 0.10 0.19 0.31 0.44 0.50 0.48 0.44 0.42 0.32 0.30 0.33 0.36 0.40 0.43 0.40 0.39
0.01 0.01 0.05 0.04 0.02 0.03 0.03 0.04 0.05 0.06 0.06 0.06 0.05 0.04 0.04 0.03 0.02 0.01 0.01 0.01 0.01 0.01 0.02 0.02 0.03 0.03 0.04 0.06 0.10 0.16 0.26 0.41 0.50 0.52 0.51 0.49 0.47 0.46 0.48 0.53 0.49 0.46 0.44 0.45
0.01 0.02 0.06 0.05 0.05 0.07 0.07 0.12 0.09 0.06 0.04 0.03 0.03 0.05 0.02 0.01 0.01 0.01 0.01 0.01 0.01 0.01 0.02 0.03 0.04 0.05 0.07 0.09 0.15 0.23 0.28 0.39 0.54 0.64 0.69 0.68 0.65 0.60 0.60 0.68 0.62 0.55 0.51 0.52
0.03 0.06 0.06 0.03 0.04 0.05 0.10 0.14 0.04 0.02 0.02 0.03 0.06 0.09 0.05 0.02 0.01 0.01 0.01 0.01 0.02 0.02 0.03 0.05 0.06 0.09 0.15 0.19 0.25 0.27 0.31 0.37 0.51 0.70 0.81 0.81 0.82 0.77 0.74 0.75 0.76 0.75 0.68 0.67
0.04 0.09 0.11 0.02 0.02 0.04 0.06 0.04 0.04 0.05 0.05 0.06 0.05 0.03 0.02 0.01 0.01 0.01 0.01 0.01 0.02 0.03 0.05 0.06 0.10 0.19 0.28 0.33 0.34 0.35 0.39 0.47 0.58 0.70 0.65 0.65 0.88 0.92 0.93 0.97 0.96 0.91 0.85 0.79
0.06 0.07 0.03 0.01 0.02 0.03 0.04 0.07 0.07 0.07 0.05 0.03 0.03 0.02 0.02 0.02 0.02 0.02 0.02 0.03 0.04 0.06 0.09 0.13 0.21 0.35 0.47 0.47 0.46 0.46 0.49 0.56 0.63 0.70 0.79 0.91 0.99 1.01 1.04 1.06 1.07 1.00 0.96 0.91
0.07 0.04 0.02 0.02 0.03 0.03 0.03 0.04 0.03 0.02 0.02 0.02 0.03 0.04 0.04 0.04 0.03 0.03 0.02 0.03 0.05 0.10 0.18 0.27 0.37 0.50 0.58 0.57 0.57 0.56 0.57 0.59 0.63 0.74 0.82 0.93 1.10 1.16 1.16 1.12 1.11 1.08 1.01 0.96
0.07 0.05 0.03 0.04 0.04 0.02 0.01 0.01 0.01 0.01 0.01 0.02 0.04 0.06 0.06 0.06 0.05 0.04 0.04 0.05 0.09 0.17 0.26 0.34 0.47 0.58 0.59 0.61 0.68 0.70 0.67 0.65 0.66 0.74 0.88 0.96 1.07 1.15 1.17 1.21 1.05 0.99 0.93 0.90
0.07 0.06 0.07 0.07 0.03 0.02 0.02 0.02 0.03 0.03 0.03 0.03 0.05 0.06 0.06 0.06 0.05 0.05 0.05 0.08 0.15 0.24 0.29 0.33 0.45 0.60 0.65 0.73 0.81 0.85 0.82 0.74 0.70 0.75 0.87 0.97 1.07 1.07 0.91 0.86 0.70 0.62 0.63 0.60
0.04 0.03 0.04 0.03 0.02 0.03 0.03 0.03 0.04 0.04 0.04 0.04 0.05 0.05 0.04 0.04 0.04 0.05 0.06 0.11 0.21 0.30 0.36 0.40 0.47 0.59 0.70 0.84 0.93 0.99 0.95 0.85 0.77 0.76 0.84 0.91 1.02 1.14 1.18 0.96 0.72 0.57 0.50 0.43
0.02 0.02 0.02 0.02 0.02 0.02 0.02 0.02 0.03 0.04 0.05 0.05 0.05 0.05 0.05 0.04 0.05 0.08 0.12 0.18 0.26 0.34 0.41 0.48 0.56 0.63 0.73 0.89 0.97 1.00 1.00 0.90 0.81 0.82 0.84 0.88 0.94 1.06 1.21 1.21 0.97 0.68 0.54 0.45
0.01 0.02 0.03 0.02 0.01 0.01 0.02 0.02 0.03 0.05 0.06 0.05 0.05 0.05 0.05 0.06 0.08 0.12 0.17 0.27 0.40 0.46 0.48 0.54 0.64 0.69 0.83 0.99 1.04 1.01 0.96 0.89 0.81 0.84 0.85 0.84 0.89 0.96 1.05 1.10 1.01 0.88 0.72 0.54
0.00 0.00 0.01 0.01 0.02 0.02 0.02 0.02 0.02 0.03 0.04 0.05 0.05 0.04 0.05 0.06 0.10 0.14 0.23 0.41 0.64 0.68 0.63 0.65 0.68 0.71 0.89 1.06 1.07 1.03 0.93 0.74 0.67 0.72 0.78 0.80 0.86 0.91 0.92 0.98 0.97 0.90 0.78 0.56
0.01 0.00 0.00 0.01 0.01 0.02 0.02 0.02 0.03 0.03 0.04 0.06 0.05 0.05 0.06 0.09 0.17 0.25 0.38 0.50 0.61 0.63 0.65 0.71 0.68 0.67 0.84 0.99 1.03 1.00 0.91 0.76 0.57 0.56 0.66 0.73 0.81 0.85 0.85 0.83 0.85 0.81 0.67 0.46
0.00 0.00 0.00 0.00 0.01 0.02 0.02 0.03 0.03 0.03 0.04 0.06 0.09 0.11 0.15 0.23 0.38 0.52 0.64 0.68 0.65 0.56 0.56 0.61 0.58 0.62 0.77 0.83 0.88 0.94 0.89 0.81 0.65 0.56 0.58 0.63 0.71 0.78 0.76 0.69 0.67 0.65 0.56 0.39
0.00 0.00 0.00 0.00 0.00 0.01 0.02 0.03 0.03 0.04 0.04 0.08 0.13 0.19 0.26 0.37 0.53 0.67 0.76 0.87 0.91 0.79 0.62 0.55 0.51 0.56 0.70 0.72 0.75 0.86 0.86 0.77 0.66 0.58 0.59 0.57 0.61 0.67 0.63 0.57 0.53 0.50 0.43 0.34
0.00 0.00 0.00 0.00 0.00 0.00 0.01 0.03 0.05 0.06 0.08 0.13 0.20 0.26 0.36 0.51 0.69 0.82 0.89 0.92 0.94 0.90 0.72 0.58 0.53 0.54 0.59 0.65 0.72 0.76 0.79 0.74 0.62 0.57 0.58 0.60 0.57 0.56 0.49 0.45 0.41 0.35 0.29 0.26
0.00 0.00 0.00 0.00 0.00 0.00 0.02 0.03 0.07 0.11 0.16 0.21 0.29 0.38 0.50 0.64 0.78 0.93 1.14 1.14 0.92 0.82 0.69 0.59 0.53 0.51 0.53 0.61 0.67 0.73 0.75 0.75 0.64 0.54 0.52 0.53 0.48 0.44 0.40 0.38 0.31 0.26 0.23 0.23
0.00 0.00 0.00 0.01 0.01 0.02 0.03 0.05 0.10 0.19 0.28 0.34 0.37 0.44 0.58 0.71 0.85 0.98 1.07 1.22 1.11 0.95 0.71 0.56 0.49 0.46 0.46 0.53 0.58 0.66 0.68 0.69 0.61 0.51 0.44 0.41 0.37 0.36 0.35 0.29 0.23 0.19 0.18 0.19
0.00 0.01 0.02 0.03 0.04 0.05 0.05 0.07 0.14 0.27 0.40 0.49 0.52 0.59 0.73 0.78 0.91 1.21 1.27 1.12 1.07 0.96 0.67 0.52 0.49 0.42 0.38 0.41 0.50 0.57 0.58 0.57 0.54 0.43 0.33 0.28 0.26 0.28 0.27 0.21 0.16 0.13 0.13 0.12
0.01 0.02 0.03 0.04 0.05 0.08 0.11 0.16 0.22 0.33 0.41 0.46 0.46 0.53 0.70 0.77 0.77 0.83 1.03 1.14 1.09 0.94 0.67 0.54 0.47 0.39 0.34 0.34 0.46 0.54 0.54 0.50 0.47 0.37 0.26 0.20 0.21 0.24 0.20 0.15 0.12 0.10 0.09 0.09
0.02 0.03 0.04 0.05 0.10 0.18 0.27 0.35 0.44 0.49 0.52 0.52 0.45 0.43 0.52 0.64 0.73 0.69 0.72 0.83 0.95 0.85 0.70 0.59 0.49 0.45 0.36 0.33 0.40 0.48 0.48 0.45 0.39 0.31 0.24 0.21 0.21 0.21 0.17 0.12 0.10 0.08 0.08 0.08
0.03 0.04 0.05 0.06 0.12 0.25 0.41 0.57 0.72 0.74 0.76 0.74 0.60 0.44 0.43 0.47 0.49 0.51 0.54 0.59 0.67 0.72 0.66 0.62 0.52 0.45 0.40 0.38 0.39 0.43 0.47 0.48 0.38 0.31 0.28 0.27 0.25 0.22 0.18 0.12 0.08 0.07 0.05 0.05
0.03 0.04 0.05 0.08 0.17 0.30 0.47 0.62 0.78 0.84 0.84 0.86 0.72 0.50 0.40 0.39 0.37 0.38 0.43 0.49 0.53 0.57 0.57 0.53 0.47 0.40 0.36 0.36 0.37 0.39 0.43 0.43 0.38 0.33 0.27 0.24 0.22 0.21 0.17 0.13 0.09 0.07 0.06 0.05